Location: Caltech
(34.1382°N, 118.1253°W)
Time: 05:51:29
(UTC-07:00)

Cosmos 1697 Rocket - Visible Passes

Search period start: 27 August 2014 00:00
Search period end: 06 September 2014 00:00
Orbit: 832 x 844 km, 71.0° (Epoch: 25 August)

Date Brightness Start Highest point End Pass type
(mag) Time Alt. Az. Time Alt. Az. Time Alt. Az.
27 Aug 3.2 03:31:32 56° NE 03:31:32 56° NE 03:36:02 10° NNE visible
27 Aug 4.5 05:13:18 13° WNW 05:14:57 14° NW 05:17:48 10° NNW visible
28 Aug 3.7 03:16:12 43° NE 03:16:12 43° NE 03:19:58 10° NNE visible
28 Aug 4.4 04:57:58 15° WNW 04:58:50 15° NW 05:02:00 10° NNW visible
29 Aug 4.2 03:00:49 33° NE 03:00:49 33° NE 03:03:54 10° NNE visible
29 Aug 4.4 04:42:35 16° WNW 04:42:44 16° NW 04:46:10 10° NNW visible
30 Aug 4.6 02:45:24 26° NE 02:45:24 26° NE 02:47:49 10° NNE visible
30 Aug 4.4 04:27:09 17° NW 04:27:09 17° NW 04:30:18 10° NNW visible
31 Aug 4.9 02:29:57 21° NE 02:29:57 21° NE 02:31:44 10° NNE visible
31 Aug 4.5 04:11:42 18° NW 04:11:42 18° NW 04:14:25 10° NNW visible
01 Sep 5.2 02:14:27 16° NE 02:14:27 16° NE 02:15:39 10° NNE visible
01 Sep 4.6 03:56:12 18° NW 03:56:12 18° NW 03:58:31 10° NNW visible
02 Sep 5.4 01:58:56 13° NE 01:58:56 13° NE 01:59:33 10° NE visible
02 Sep 4.7 03:40:41 17° NNW 03:40:41 17° NNW 03:42:37 10° N visible
03 Sep 5.6 01:43:24 10° NE 01:43:24 10° NE 01:43:27 10° NE visible
03 Sep 4.9 03:25:09 16° NNW 03:25:09 16° NNW 03:26:41 10° N visible
04 Sep 5.0 03:09:34 15° NNW 03:09:34 15° NNW 03:10:45 10° N visible
05 Sep 5.2 02:53:59 14° N 02:53:59 14° N 02:54:48 10° N visible
